Location: Brachbach
(49.1847°N, 9.7240°E)
Time: 21:30:54
(UTC+00:00)

Cosmos 2219 Rocket - Pass Details

Date: 22 August 2024
Orbit: 826 x 846 km, 71.0° (Epoch: 09 September)

Event Time Altitude Azimuth Distance (km) Brightness Sun altitude
Exits shadow 22:18:30 70° 73° (ENE) 904 2.2 -27.8°
Drops below altitude 10° 22:23:42 10° 31° (NNE) 2,480 5.1 -28.0°
Sets 22:26:10 0° 30° (NNE) 3,419 6.0 -28.1°
